Location: ????
(33.1659°N, 35.6604°E)
Time: 07:14:56
(UTC+00:00)

Cosmos 2297 Rocket - Pass Details

Date: 20 September 2019
Orbit: 841 x 842 km, 71.0° (Epoch: 22 October)

Event Time Altitude Azimuth Distance (km) Brightness Sun altitude
Rises 16:56:26 0° 196° (SSW) 3,380 5.4 -17.2°
Reaches altitude 10° 16:58:52 10° 195° (SSW) 2,449 4.6 -17.7°
Maximum altitude 17:04:29 80° 109° (ESE) 857 2.1 -18.8°
Drops below altitude 10° 17:10:08 10° 23° (NNE) 2,462 4.5 -20.0°
Sets 17:12:35 0° 22° (NNE) 3,400 5.3 -20.5°
